Location: Cudham
(51.3000°N, 0.0667°E)
Time: 00:31:57
(UTC+00:00)

Cosmos 1733 - Pass Details

Date: 19 May 2025
Orbit: 375 x 381 km, 82.5° (Epoch: 18 June)

Event Time Altitude Azimuth Distance (km) Brightness Sun altitude
Rises 20:31:54 0° 357° (N) 2,312 7.3 -5.9°
Reaches altitude 10° 20:34:04 10° 8° (N) 1,448 6.0 -6.1°
Maximum altitude 20:36:55 31° 73° (ENE) 724 3.7 -6.5°
Drops below altitude 10° 20:39:44 10° 138° (SE) 1,431 4.8 -6.8°
Enters shadow 20:39:54 - 140° (SE) 1,498 4.9 -6.8°
